Вернуться в каталог

STARLINK-31991

АктивенСвязьVLEO
NORAD 59963·PAYLOAD·🇺🇸 United States

Запущен Jun 5, 2024 с Cape Canaveral Space Force Station

Loading…

Ближайшие Пролёты (ближайшие 24 часа)

TLE

СвежийSource: CelesTrak SupGP

Эпоха: Sep 14, 2026, 21:10 UTC

1 59963C 24107U   26257.88243056  .00056204  00000+0  16608-2 0  2570
2 59963  53.1572 263.9294 0001226  94.7143 224.0893 15.34357945    16

Отслеживайте STARLINK-31991 в реальном времени с AllMySat

Download on the App Store